Find Kuiper-00261

NORAD ID: 67158 Int'l Des: 2025-301 Owner: KUIP Country: US Constellation: amazon-leo operational
LEOCIRCULAR

实时位置

正在加载3D地球...

关于 Kuiper-00261

正在加载描述...

即将过境

Passes for default location (London). Set your location on the main map for personalized predictions.

高度历史

Loading altitude history...

两行轨道根数

1 67158U 25301AB 26125.17610927 .00003781 00000-0 52473-3 0 9990
2 67158 51.8999 180.8700 0000526 115.5207 244.5810 14.79926616 22029
Epoch: May 5, 2026 • Age: 7 hours

当前状态

高度 631.3 km
速度 7.55 km/s
星下点 33.23°N, 64.33°W
发射日期 Dec 16, 2025
运行时间 0.3 years
类型 internet

技术详情

分类 Payload
质量 490.00 kg
干质量 490.00 kg
总质量 490.00 kg
长度 1.80 m
直径 0.70 m
跨度 5.00 m
形状 Box + 2 pan
制造商 KUIP
平台类型 Kuiper
阶段状态 In Orbit
所有者/国家 KUIP/US

Most Searched